• în România
  • Lista ţărilor
  • Pe 7 zile
  • Temperatura apei
  • Hartă satelitară
  • Meteo pe hartă
  • Widget-uri
  • user-avatar
    Intrare

    Meteo pe oră la Pisarevo

    Astăzi, 25 Mai, Vineri

    Timp Temperatura Precipitaţii Vânt Presiune Umiditate
    00:00 +14°C° 0 mm 4 m/s 746 mmHg 84%
    01:00 +14°C° 0 mm 4 m/s 747 mmHg 85%
    02:00 +14°C° 0 mm 5 m/s 747 mmHg 86%
    03:00 +13°C° 0 mm 5 m/s 747 mmHg 86%
    04:00 +13°C° 0 mm 5 m/s 748 mmHg 87%
    05:00 +13°C° 0 mm 6 m/s 748 mmHg 89%
    06:00 +13°C° 0 mm 6 m/s 748 mmHg 90%
    07:00 +14°C° 0 mm 7 m/s 749 mmHg 85%
    08:00 +14°C° 0 mm 7 m/s 749 mmHg 80%
    09:00 +15°C° 0 mm 7 m/s 749 mmHg 76%
    10:00 +16°C° 0 mm 7 m/s 750 mmHg 71%
    11:00 +17°C° 0 mm 7 m/s 750 mmHg 66%
    12:00 +17°C° 0 mm 7 m/s 750 mmHg 60%
    13:00 +17°C° 0 mm 7 m/s 751 mmHg 57%
    14:00 +17°C° 0 mm 7 m/s 751 mmHg 54%
    15:00 +17°C° 0 mm 7 m/s 751 mmHg 51%
    16:00 +17°C° 0 mm 7 m/s 751 mmHg 54%
    17:00 +16°C° 0 mm 6 m/s 751 mmHg 57%
    18:00 +16°C° 0 mm 5 m/s 752 mmHg 60%
    19:00 +14°C° 0 mm 5 m/s 752 mmHg 62%
    20:00 +13°C° 0 mm 4 m/s 753 mmHg 65%
    21:00 +11°C° 0 mm 4 m/s 753 mmHg 67%
    22:00 +11°C° 0 mm 4 m/s 754 mmHg 67%
    23:00 +10°C° 0 mm 4 m/s 754 mmHg 67%

    Mâine, 26 Mai, Sâmbătă

    Timp Temperatura Precipitaţii Vânt Presiune Umiditate
    00:00 +8°C° 0 mm 4 m/s 755 mmHg 67%
    01:00 +8°C° 0 mm 4 m/s 755 mmHg 68%
    02:00 +7°C° 0 mm 4 m/s 756 mmHg 68%
    03:00 +8°C° 0 mm 3 m/s 756 mmHg 68%
    04:00 +8°C° 0 mm 3 m/s 757 mmHg 69%
    05:00 +8°C° 0 mm 3 m/s 757 mmHg 71%
    06:00 +8°C° 0 mm 3 m/s 758 mmHg 72%
    07:00 +10°C° 0 mm 4 m/s 758 mmHg 66%
    08:00 +11°C° 0 mm 4 m/s 758 mmHg 59%
    09:00 +13°C° 0 mm 5 m/s 759 mmHg 53%
    10:00 +14°C° 0 mm 5 m/s 759 mmHg 51%
    11:00 +14°C° 0 mm 5 m/s 759 mmHg 50%
    12:00 +15°C° 0 mm 5 m/s 759 mmHg 48%
    13:00 +16°C° 0 mm 5 m/s 759 mmHg 48%
    14:00 +17°C° 0 mm 4 m/s 758 mmHg 48%
    15:00 +17°C° 0 mm 4 m/s 758 mmHg 48%
    16:00 +17°C° 0 mm 3 m/s 758 mmHg 50%
    17:00 +17°C° 0 mm 3 m/s 758 mmHg 52%
    18:00 +17°C° 0 mm 2 m/s 758 mmHg 55%
    19:00 +15°C° 0 mm 2 m/s 758 mmHg 59%
    20:00 +14°C° 0 mm 2 m/s 758 mmHg 63%
    21:00 +12°C° 0 mm 2 m/s 758 mmHg 67%
    22:00 +11°C° 0 mm 1 m/s 758 mmHg 68%
    23:00 +11°C° 0 mm 1 m/s 758 mmHg 69%

    Poimâine, 27 Mai, Duminică

    Timp Temperatura Precipitaţii Vânt Presiune Umiditate
    00:00 +10°C° 0 mm 1 m/s 759 mmHg 70%
    01:00 +10°C° 0 mm 1 m/s 759 mmHg 71%
    02:00 +9°C° 0 mm 1 m/s 759 mmHg 72%
    03:00 +9°C° 0 mm 1 m/s 759 mmHg 74%
    04:00 +10°C° 0 mm 1 m/s 759 mmHg 74%
    05:00 +10°C° 0 mm 1 m/s 759 mmHg 75%
    06:00 +11°C° 0 mm 1 m/s 759 mmHg 75%
    07:00 +12°C° 0 mm 2 m/s 758 mmHg 70%
    08:00 +14°C° 0 mm 2 m/s 758 mmHg 64%
    09:00 +16°C° 0 mm 2 m/s 758 mmHg 58%
    10:00 +16°C° 0 mm 2 m/s 758 mmHg 55%
    11:00 +17°C° 0 mm 2 m/s 757 mmHg 52%
    12:00 +18°C° 0 mm 2 m/s 757 mmHg 49%
    13:00 +19°C° 0 mm 2 m/s 756 mmHg 49%
    14:00 +19°C° 0 mm 3 m/s 756 mmHg 48%
    15:00 +20°C° 0 mm 3 m/s 756 mmHg 48%
    16:00 +20°C° 0 mm 3 m/s 755 mmHg 52%
    17:00 +19°C° 0 mm 3 m/s 754 mmHg 55%
    18:00 +19°C° 0 mm 3 m/s 754 mmHg 59%
    19:00 +17°C° 0 mm 3 m/s 754 mmHg 64%
    20:00 +16°C° 0 mm 3 m/s 753 mmHg 68%
    21:00 +13°C° 0 mm 3 m/s 753 mmHg 73%
    22:00 +12°C° 0 mm 3 m/s 753 mmHg 74%
    23:00 +12°C° 0 mm 3 m/s 753 mmHg 75%

    28 Mai, Luni

    Timp Temperatura Precipitaţii Vânt Presiune Umiditate
    00:00 +11°C° 0 mm 3 m/s 753 mmHg 77%
    01:00 +11°C° 0 mm 3 m/s 753 mmHg 77%
    02:00 +11°C° 0 mm 3 m/s 753 mmHg 78%
    03:00 +10°C° 0 mm 3 m/s 752 mmHg 79%
    04:00 +11°C° 0 mm 3 m/s 752 mmHg 80%
    05:00 +11°C° 0 mm 3 m/s 752 mmHg 80%
    06:00 +12°C° 0 mm 3 m/s 753 mmHg 81%
    07:00 +13°C° 0 mm 4 m/s 753 mmHg 79%
    08:00 +15°C° 0 mm 4 m/s 753 mmHg 77%
    09:00 +18°C° 0 mm 4 m/s 753 mmHg 74%
    10:00 +17°C° 0 mm 5 m/s 753 mmHg 68%
    11:00 +19°C° 0 mm 5 m/s 754 mmHg 61%
    12:00 +20°C° 0 mm 6 m/s 754 mmHg 54%
    13:00 +20°C° 0 mm 6 m/s 754 mmHg 51%
    14:00 +20°C° 0 mm 6 m/s 754 mmHg 49%
    15:00 +19°C° 0 mm 6 m/s 754 mmHg 46%
    16:00 +19°C° 0 mm 5 m/s 754 mmHg 50%
    17:00 +17°C° 0 mm 5 m/s 755 mmHg 53%
    18:00 +17°C° 0 mm 4 m/s 755 mmHg 56%
    19:00 +15°C° 0 mm 4 m/s 755 mmHg 59%
    20:00 +13°C° 0 mm 4 m/s 756 mmHg 62%
    21:00 +11°C° 0 mm 4 m/s 756 mmHg 65%
    22:00 +10°C° 0 mm 3 m/s 756 mmHg 65%
    23:00 +9°C° 0 mm 3 m/s 757 mmHg 65%

    29 Mai, Marţi

    Timp Temperatura Precipitaţii Vânt Presiune Umiditate
    00:00 +8°C° 0 mm 3 m/s 757 mmHg 66%
    01:00 +8°C° 0 mm 2 m/s 757 mmHg 66%
    02:00 +8°C° 0 mm 2 m/s 758 mmHg 67%
    03:00 +8°C° 0 mm 1 m/s 758 mmHg 68%
    04:00 +9°C° 0 mm 1 m/s 758 mmHg 68%
    05:00 +10°C° 0 mm 1 m/s 758 mmHg 68%
    06:00 +10°C° 0 mm 1 m/s 758 mmHg 69%
    07:00 +12°C° 0 mm 2 m/s 758 mmHg 63%
    08:00 +14°C° 0 mm 2 m/s 758 mmHg 58%
    09:00 +15°C° 0 mm 2 m/s 758 mmHg 53%
    10:00 +17°C° 0 mm 3 m/s 758 mmHg 51%
    11:00 +18°C° 0 mm 3 m/s 758 mmHg 50%
    12:00 +19°C° 0 mm 3 m/s 757 mmHg 48%
    13:00 +19°C° 0 mm 4 m/s 757 mmHg 49%
    14:00 +20°C° 0 mm 4 m/s 756 mmHg 50%
    15:00 +20°C° 0 mm 4 m/s 755 mmHg 50%
    16:00 +20°C° 0 mm 4 m/s 755 mmHg 55%
    17:00 +20°C° 0 mm 4 m/s 754 mmHg 59%
    18:00 +20°C° 0 mm 4 m/s 753 mmHg 63%
    19:00 +18°C° 0 mm 4 m/s 753 mmHg 67%
    20:00 +17°C° 0 mm 4 m/s 752 mmHg 72%
    21:00 +14°C° 0 mm 4 m/s 752 mmHg 76%
    22:00 +13°C° 0 mm 4 m/s 752 mmHg 75%
    23:00 +13°C° 0 mm 4 m/s 751 mmHg 75%

    30 Mai, Miercuri

    Timp Temperatura Precipitaţii Vânt Presiune Umiditate
    00:00 +12°C° 0 mm 4 m/s 751 mmHg 74%
    01:00 +12°C° 0 mm 5 m/s 751 mmHg 73%
    02:00 +12°C° 0 mm 5 m/s 750 mmHg 73%
    03:00 +12°C° 0 mm 5 m/s 750 mmHg 72%
    04:00 +12°C° 0 mm 5 m/s 749 mmHg 74%
    05:00 +11°C° 0 mm 6 m/s 749 mmHg 77%
    06:00 +13°C° 0 mm 6 m/s 748 mmHg 79%
    07:00 +14°C° 0 mm 6 m/s 748 mmHg 75%
    08:00 +16°C° 0 mm 6 m/s 747 mmHg 72%
    09:00 +18°C° 0 mm 7 m/s 747 mmHg 69%
    10:00 +20°C° 0 mm 7 m/s 746 mmHg 65%
    11:00 +21°C° 0 mm 7 m/s 746 mmHg 62%
    12:00 +23°C° 0 mm 8 m/s 745 mmHg 58%
    13:00 +23°C° 0 mm 8 m/s 745 mmHg 57%
    14:00 +24°C° 0 mm 7 m/s 744 mmHg 57%
    15:00 +24°C° 0 mm 7 m/s 744 mmHg 56%
    16:00 +23°C° 0,1 mm 6 m/s 744 mmHg 60%
    17:00 +23°C° 0,1 mm 5 m/s 743 mmHg 65%
    18:00 +22°C° 0,1 mm 5 m/s 743 mmHg 69%
    19:00 +20°C° 0 mm 5 m/s 744 mmHg 67%
    20:00 +19°C° 0 mm 5 m/s 744 mmHg 64%
    21:00 +16°C° 0 mm 5 m/s 744 mmHg 62%
    22:00 +14°C° 0 mm 4 m/s 745 mmHg 62%
    23:00 +12°C° 0 mm 4 m/s 745 mmHg 61%
    Arată mai mult